{"data":{"norad_id":56812,"epoch":"2026-05-25T02:39:34.631136Z","epoch_age_seconds":59499,"freshness":"FRESH","line1":"1 56812U 23078AX  26145.11081749 -.00001753  00000+0 -13908-3 0  9992","line2":"2 56812  69.9989 131.6578 0003402 270.4567  89.6202 14.98340104164625","mean_motion":14.98340104,"eccentricity":0.0003402,"inclination_deg":69.9989,"raan_deg":131.6578,"arg_perigee_deg":270.4567,"mean_anomaly_deg":89.6202,"bstar":-0.00013908,"rev_number":16462,"period_min":96.106351031768,"perigee_km":569.66020034174,"apogee_km":574.38909032523,"semimajor_km":6950.1616453335,"source":"CELESTRAK","updated_at":"2026-05-25T13:38:18.160613Z"}}